Temp
89 97 102 96 77 71 75 77 89 85 87 95 95 90 86 89 81 70 98 101 101 98 94 90 83 84 84 84 84 84 84 84 83 83 83 83 84 84 84 84 84 84 84 84 85 83 84 84 83
103 101 99 94 67 61 72 81 79 87 91 94 94 92 88 84 93 92 96 100 101 100 97 93 82 83 84 84 84 84 84 84 84 84 84 84 84 84 84 84 84 84 84 84 85 84 84 83 82
99 100 88 85 70 70 73 78 84 86 87 92 91 95 92 86 93 95 101 101 103 99 99 90 83 83 84 84 84 84 84 84 84 84 84 84 84 84 85 85 85 85 84 84 84 84 85 84 83
102 98 97 72 77 81 81 80 89 87 91 85 91 86 92 96 96 100 102 102 102 101 100 85 83 84 84 84 84 84 84 84 84 84 84 84 85 85 85 85 84 84 85 84 84 85 85 84 83
104 98 86 81 80 85 90 90 91 86 84 88 86 82 86 94 101 101 101 103 98 100 95 90 83 84 84 84 84 84 84 84 84 84 84 84 85 85 84 84 84 84 84 84 83 84 84 84 83
98 97 80 76 80 86 90 91 91 88 90 88 88 87 87 96 98 99 102 99 100 97 98 93 84 84 84 84 84 84 84 84 84 84 84 84 84 84 84 84 84 84 84 83 84 84 84 84 84
92 90 83 83 79 83 87 93 89 79 84 83 93 81 89 94 99 101 102 101 100 101 97 93 92 88 84 85 84 84 84 84 84 84 84 84 84 83 84 84 83 83 84 84 83 84 84 84 84
99 92 83 83 80 79 90 91 92 90 80 97 98 66 85 94 99 102 101 97 100 100 94 93 92 92 90 91 85 85 84 84 84 84 84 84 84 84 84 83 83 83 84 84 83 84 84 84 84
102 87 80 81 83 83 91 86 93 97 92 93 95 88 90 99 101 100 94 92 90 94 95 98 96 94 93 95 90 85 84 84 84 85 84 85 89 86 84 84 82 82 83 84 84 84 84 84 84
95 86 82 89 91 88 91 90 90 90 89 88 92 97 99 97 97 96 93 87 92 91 93 95 97 95 92 91 90 91 91 92 91 89 86 90 92 83 89 86 82 83 83 83 83 83 84 85 86
93 84 90 91 92 94 92 91 94 90 85 90 86 93 95 95 95 96 95 91 93 94 96 91 93 87 89 87 91 95 87 94 93 85 90 91 92 88 94 89 81 86 83 88 87 88 90 90 85
88 92 92 93 94 92 89 94 91 91 91 98 95 98 96 94 95 94 97 93 93 93 96 98 98 89 94 95 95 85 90 93 87 90 90 86 92 86 87 91 75 81 84 85 81 83 80 87 90
90 93 96 97 95 94 94 90 90 91 96 99 98 97 95 95 95 97 99 95 95 93 95 96 96 93 92 92 95 93 86 92 93 89 93 88 92 92 77 80 84 90 82 82 87 89 87 84 86
94 95 95 95 95 95 90 92 91 94 98 96 96 95 95 92 92 93 98 94 93 95 93 97 95 89 92 91 91 90 92 87 92 91 93 91 93 92 83 89 77 81 83 88 83 87 82 89 83
95 90 94 94 95 92 94 87 88 96 97 94 95 95 94 94 97 96 98 96 96 97 94 88 90 88 87 89 92 89 93 94 85 88 93 91 90 91 89 83 91 81 80 88 89 82 81 84 84
90 90 84 92 93 93 91 80 92 98 95 93 94 94 95 96 98 98 99 96 93 94 92 94 98 89 88 85 92 85 85 84 85 88 95 91 91 90 90 84 88 92 92 94 80 75 77 84 85
88 80 81 85 94 91 90 83 92 97 95 93 94 94 94 95 96 98 100 99 95 95 92 94 95 93 87 91 91 86 88 91 88 91 90 91 92 92 90 80 84 90 83 92 84 76 79 74 89
80 81 83 82 90 91 88 88 94 97 95 93 95 95 93 92 94 97 99 100 100 98 92 95 90 93 93 87 86 84 84 85 93 86 86 93 94 92 90 88 92 90 92 92 89 88 80 81 81
86 84 82 87 91 87 86 88 92 95 94 92 95 94 91 92 94 95 98 97 99 97 96 91 93 91 90 90 87 79 79 82 87 92 88 89 93 92 90 91 92 91 90 90 90 87 77 88 89
87 84 84 87 90 89 87 84 91 91 93 93 93 95 94 93 91 92 95 96 99 97 95 94 92 90 90 90 89 87 83 84 88 91 87 92 93 92 90 88 92 90 82 88 89 87 88 88 83
86 85 84 83 88 91 86 73 75 90 90 92 94 97 98 95 89 90 92 95 97 95 96 94 92 88 88 89 86 85 82 80 81 83 91 92 92 93 91 90 89 91 89 77 89 90 87 84 86
83 91 88 85 83 75 88 68 73 86 88 88 92 94 97 98 99 93 94 98 98 96 98 95 92 90 89 88 87 82 79 79 84 88 90 93 91 92 93 90 90 89 91 84 92 92 89 88 83
85 92 88 87 84 83 80 74 58 61 85 88 92 95 96 100 99 99 91 93 101 101 99 97 92 90 90 89 86 85 79 83 82 88 89 89 86 91 93 91 90 90 91 90 88 88 88 89 85
93 89 89 89 86 72 78 77 55 69 84 88 93 95 96 99 100 100 102 98 77 102 100 98 92 88 89 88 86 84 81 81 88 88 80 89 85 92 90 91 90 91 90 90 90 89 88 87 86
92 86 75 71 72 66 79 77 77 86 90 87 90 93 95 97 99 99 100 100 90 98 97 95 91 87 88 88 87 86 84 81 82 82 85 87 87 91 87 87 86 90 88 89 89 89 88 87 86
88 87 77 64 69 61 79 74 76 92 94 94 95 95 94 94 97 97 99 100 99 96 95 93 91 88 89 87 87 86 87 88 85 87 90 85 91 87 83 86 90 91 91 90 89 90 90 83 89
86 81 92 82 84 78 72 74 88 83 92 94 95 95 94 92 91 94 97 100 99 95 89 86 92 87 88 89 88 87 87 87 87 82 89 84 86 93 84 91 90 90 90 90 89 87 86 87 87
90 94 80 81 66 64 70 76 74 82 86 92 92 94 95 95 90 93 96 96 98 97 94 81 93 87 90 92 87 90 86 87 89 90 88 88 87 88 84 90 90 90 90 90 88 87 85 87 90
86 85 86 88 82 71 69 65 88 86 89 89 92 94 95 95 93 91 96 96 98 97 93 91 92 90 91 92 92 90 86 90 89 90 89 88 90 91 90 90 89 88 89 89 87 82 80 83 87
93 88 88 76 73 80 77 71 93 92 92 92 92 93 95 95 95 94 95 96 96 93 91 85 90 91 92 93 91 91 90 90 90 88 87 89 88 89 89 89 88 88 88 89 87 83 85 85 87
MSLP
1008.11 1007.32 1006.27 1005.61 1005.34 1004.68 1004.10 1004.38 1003.23 1003.38 1003.09 1003.61 1004.17 1004.41 1004.88 1005.55 1006.19 1007.51 1008.67 1009.04 1009.89 1011.04 1012.60 1013.56 1014.27 1014.65 1014.95 1015.19 1015.46 1015.79 1015.93 1016.09 1016.36 1016.67 1016.91 1017.08 1017.38 1017.63 1017.75 1017.89 1018.09 1018.32 1018.49 1018.68 1018.83 1018.82 1018.89 1018.96 1019.11
1006.47 1005.93 1005.65 1004.01 1004.86 1004.75 1004.67 1004.98 1004.04 1003.94 1004.22 1004.32 1004.39 1004.50 1004.77 1005.88 1006.81 1007.60 1008.24 1009.29 1009.92 1010.87 1012.31 1013.19 1014.39 1014.71 1015.07 1015.36 1015.70 1015.89 1016.03 1016.18 1016.57 1016.91 1017.11 1017.23 1017.40 1017.62 1017.74 1017.97 1018.22 1018.43 1018.57 1018.72 1018.80 1018.88 1018.93 1019.11 1019.36
1006.81 1005.78 1004.61 1003.16 1004.04 1003.75 1004.39 1005.28 1004.86 1005.37 1005.50 1004.55 1004.32 1004.71 1005.15 1006.57 1007.47 1007.87 1008.45 1009.44 1009.71 1010.95 1011.80 1013.56 1014.43 1014.87 1015.27 1015.61 1015.85 1016.01 1016.18 1016.39 1016.71 1017.01 1017.18 1017.34 1017.50 1017.62 1017.79 1018.01 1018.20 1018.38 1018.59 1018.68 1018.77 1018.82 1018.80 1019.11 1019.36
1005.06 1004.29 1003.29 1003.42 1003.20 1003.84 1004.46 1005.11 1004.50 1005.26 1005.37 1006.14 1005.38 1005.38 1006.76 1007.40 1007.51 1007.85 1009.05 1009.48 1009.80 1010.85 1011.79 1014.17 1014.57 1015.00 1015.47 1015.86 1016.10 1016.21 1016.40 1016.58 1016.82 1016.96 1017.20 1017.43 1017.57 1017.71 1017.87 1018.01 1018.21 1018.29 1018.38 1018.48 1018.61 1018.64 1018.69 1018.80 1019.05
1004.05 1002.68 1002.19 1002.79 1003.42 1003.78 1003.90 1004.25 1004.38 1004.89 1005.76 1005.77 1006.41 1006.10 1006.97 1007.85 1007.78 1008.61 1009.31 1009.40 1010.24 1010.81 1012.45 1014.08 1014.80 1015.14 1015.59 1015.95 1016.20 1016.36 1016.53 1016.73 1016.90 1017.05 1017.26 1017.49 1017.64 1017.80 1017.97 1018.05 1018.09 1018.18 1018.30 1018.41 1018.50 1018.68 1018.67 1018.85 1019.02
1002.41 1002.25 1002.13 1002.63 1003.57 1003.92 1003.99 1004.42 1004.53 1004.81 1005.10 1005.68 1005.77 1005.97 1007.23 1008.19 1008.19 1008.92 1009.28 1009.78 1010.49 1010.93 1011.87 1013.90 1015.00 1015.22 1015.62 1015.95 1016.23 1016.43 1016.55 1016.74 1016.90 1017.10 1017.40 1017.50 1017.75 1017.98 1018.04 1018.02 1018.17 1018.28 1018.30 1018.39 1018.44 1018.55 1018.67 1018.82 1019.02
1002.86 1001.87 1002.37 1002.85 1003.44 1003.77 1004.01 1004.46 1004.24 1005.56 1005.35 1006.09 1005.36 1006.01 1007.26 1007.88 1008.30 1008.91 1009.41 1010.14 1010.53 1010.72 1011.97 1013.62 1014.45 1015.14 1015.65 1015.93 1016.20 1016.46 1016.63 1016.83 1016.98 1017.24 1017.40 1017.67 1017.79 1017.96 1018.01 1018.04 1018.21 1018.24 1018.27 1018.37 1018.45 1018.44 1018.59 1018.78 1018.98
1003.22 1002.58 1002.61 1003.50 1003.56 1004.04 1004.34 1004.38 1004.79 1004.57 1005.53 1005.17 1004.99 1007.18 1006.94 1007.50 1008.31 1008.73 1009.36 1010.61 1010.64 1011.06 1012.09 1013.08 1013.95 1014.61 1015.10 1015.53 1016.14 1016.43 1016.64 1016.81 1017.00 1017.28 1017.43 1017.63 1017.63 1017.67 1017.82 1018.00 1018.05 1018.31 1018.36 1018.38 1018.49 1018.41 1018.53 1018.69 1018.87
1003.37 1002.49 1002.84 1003.66 1003.59 1003.82 1004.45 1004.39 1004.81 1004.80 1004.71 1005.07 1005.24 1006.16 1006.91 1007.61 1008.18 1008.55 1009.66 1010.84 1011.25 1011.88 1011.99 1012.38 1013.32 1014.08 1014.26 1014.33 1015.57 1016.42 1016.67 1016.80 1017.01 1017.17 1017.42 1017.36 1016.60 1016.91 1017.29 1017.73 1018.05 1018.32 1018.29 1018.33 1018.38 1018.40 1018.45 1018.53 1018.61
1003.01 1002.77 1003.87 1004.28 1003.91 1003.80 1003.92 1004.29 1004.40 1004.57 1004.41 1005.00 1005.49 1006.03 1006.75 1007.84 1008.14 1008.42 1009.46 1010.99 1011.00 1011.89 1012.12 1012.39 1012.44 1013.46 1014.20 1014.45 1015.12 1015.57 1015.72 1015.88 1016.22 1016.52 1016.93 1016.63 1015.83 1016.83 1016.97 1017.31 1017.80 1018.11 1018.21 1018.29 1018.31 1018.36 1018.26 1018.21 1017.66
1003.60 1003.49 1004.03 1004.12 1004.47 1004.10 1003.79 1003.77 1004.20 1004.18 1004.14 1004.42 1005.40 1005.88 1007.01 1007.75 1008.20 1008.32 1009.08 1010.12 1010.50 1011.39 1011.69 1012.00 1012.65 1013.58 1013.99 1014.62 1014.72 1014.72 1015.75 1015.41 1015.80 1016.40 1016.26 1015.96 1015.75 1016.30 1016.37 1016.52 1017.19 1017.43 1017.91 1017.76 1017.85 1017.80 1017.73 1017.07 1017.63
1003.63 1003.89 1003.83 1003.69 1003.94 1004.02 1003.89 1003.83 1003.58 1003.99 1003.98 1004.34 1004.78 1005.57 1006.67 1007.46 1007.94 1008.23 1008.57 1009.67 1010.50 1011.52 1011.61 1011.85 1012.37 1013.53 1013.41 1013.73 1014.32 1014.87 1015.07 1015.31 1015.37 1015.65 1016.24 1016.15 1016.13 1015.88 1016.51 1016.20 1016.91 1017.26 1017.38 1017.54 1017.58 1017.44 1017.61 1017.12 1017.01
1003.49 1003.36 1003.24 1003.17 1003.36 1003.70 1003.72 1003.75 1003.62 1003.58 1004.01 1004.48 1004.87 1005.63 1006.41 1007.08 1007.66 1007.93 1008.18 1009.53 1010.33 1011.21 1011.67 1012.19 1012.65 1013.48 1013.85 1014.26 1014.10 1013.99 1014.83 1015.24 1015.26 1015.74 1015.80 1015.81 1016.05 1015.72 1016.86 1016.97 1016.68 1016.11 1016.79 1017.18 1016.92 1016.69 1017.03 1017.05 1017.15
1003.80 1003.44 1002.84 1002.96 1002.84 1003.11 1003.35 1003.09 1003.51 1003.07 1003.67 1004.35 1004.84 1005.39 1006.08 1006.81 1007.48 1007.93 1007.97 1009.16 1010.08 1010.88 1011.44 1012.01 1012.76 1013.59 1014.18 1014.48 1014.39 1014.50 1014.62 1014.81 1015.15 1015.58 1015.37 1016.15 1015.84 1015.42 1016.41 1016.12 1016.15 1016.53 1016.64 1016.81 1016.91 1016.98 1016.80 1016.59 1017.08
1003.74 1003.13 1002.51 1002.44 1002.71 1002.73 1003.04 1002.47 1002.53 1002.87 1003.56 1004.00 1004.55 1005.18 1005.76 1006.53 1006.79 1007.26 1007.86 1008.82 1009.77 1010.53 1011.13 1012.11 1012.86 1013.81 1014.34 1014.51 1014.44 1015.06 1014.60 1014.39 1015.45 1015.60 1015.36 1016.11 1016.24 1016.00 1015.98 1016.30 1015.59 1016.17 1016.21 1016.10 1016.23 1016.92 1017.08 1017.02 1016.77
1003.20 1002.84 1001.74 1002.06 1002.68 1002.72 1002.99 1001.61 1001.61 1002.27 1003.22 1003.49 1004.21 1004.84 1005.27 1005.81 1006.45 1007.14 1007.65 1008.53 1009.49 1010.26 1010.78 1011.64 1011.95 1013.09 1013.96 1014.37 1014.27 1015.41 1015.46 1015.10 1015.14 1015.10 1014.90 1015.93 1016.01 1016.11 1015.87 1016.32 1016.00 1015.51 1015.53 1015.44 1016.30 1017.18 1017.33 1017.12 1016.85
1002.43 1001.80 1001.96 1001.95 1002.15 1002.55 1002.31 1001.82 1001.57 1002.09 1002.61 1002.96 1003.54 1004.22 1004.98 1005.73 1006.22 1006.88 1007.33 1008.16 1009.24 1009.83 1010.65 1011.26 1011.87 1012.50 1013.24 1013.81 1014.11 1014.95 1015.12 1014.83 1014.72 1014.73 1014.76 1015.36 1015.70 1015.88 1016.04 1016.09 1015.79 1015.91 1015.84 1015.51 1015.74 1016.68 1016.38 1016.35 1016.19
1001.70 1001.66 1001.87 1001.77 1001.66 1001.84 1001.59 1001.00 1000.70 1000.95 1001.79 1002.33 1002.69 1003.42 1004.49 1005.24 1005.79 1006.40 1006.90 1007.57 1008.22 1009.09 1010.33 1010.95 1011.65 1012.37 1012.81 1013.61 1014.58 1015.06 1015.45 1015.23 1014.70 1014.91 1014.93 1014.94 1015.26 1015.71 1015.99 1015.47 1015.52 1016.02 1015.51 1015.75 1015.76 1016.22 1016.26 1016.27 1016.30
1002.95 1002.52 1001.99 1001.44 1001.75 1002.02 1001.47 1001.05 1000.40 1000.45 1000.82 1001.89 1001.96 1002.47 1003.66 1004.52 1005.41 1006.22 1006.66 1007.39 1007.79 1008.63 1009.52 1010.61 1011.37 1012.12 1012.84 1013.55 1013.75 1015.00 1015.29 1015.26 1015.08 1014.46 1014.76 1014.91 1015.25 1015.43 1015.94 1015.60 1015.49 1015.82 1015.90 1015.84 1016.17 1016.53 1016.85 1016.08 1015.77
1002.68 1002.07 1001.23 1001.15 1001.61 1001.63 1001.17 1001.33 1000.76 1001.09 1000.63 1001.15 1001.77 1001.75 1002.59 1003.55 1004.78 1005.83 1006.31 1006.83 1007.24 1008.06 1009.04 1010.04 1011.03 1011.94 1012.66 1013.17 1013.28 1014.10 1014.85 1014.99 1014.93 1014.48 1014.77 1014.95 1015.06 1015.26 1015.70 1015.89 1015.37 1015.65 1015.72 1016.04 1016.20 1016.45 1016.01 1015.88 1015.92
1001.94 1001.17 1000.83 1001.23 1001.31 1000.94 1001.28 1002.48 1002.52 1001.42 1001.40 1001.31 1001.54 1001.68 1001.79 1002.63 1003.72 1004.94 1005.64 1006.13 1006.66 1007.68 1008.59 1009.50 1010.51 1011.68 1012.50 1012.77 1013.33 1013.88 1014.45 1014.93 1015.01 1014.84 1014.36 1014.70 1014.95 1014.97 1015.41 1015.59 1015.69 1015.59 1015.92 1016.05 1015.87 1015.90 1015.89 1015.55 1015.74
1000.86 1001.01 1001.28 1001.14 1001.03 1000.29 1000.88 1002.29 1002.34 1001.68 1000.73 1001.23 1001.19 1001.38 1001.42 1001.82 1002.54 1003.71 1004.36 1004.86 1005.77 1006.86 1007.85 1009.05 1010.18 1010.98 1011.93 1012.55 1013.01 1013.62 1013.96 1014.17 1014.09 1014.26 1014.02 1014.09 1014.79 1014.98 1015.04 1015.43 1015.62 1015.63 1015.44 1015.64 1015.35 1015.39 1015.76 1015.69 1015.77
1001.24 1001.13 1001.16 1000.88 1000.66 1000.12 1000.85 1002.23 1006.69 1004.10 1000.73 1000.44 1000.31 1000.52 1001.16 1000.98 1001.77 1002.44 1003.83 1003.94 1003.91 1005.03 1006.55 1008.26 1009.65 1010.60 1011.17 1011.93 1012.71 1013.21 1013.79 1013.73 1013.61 1013.48 1013.61 1014.14 1014.43 1014.71 1014.62 1014.89 1015.26 1015.41 1015.37 1015.25 1015.58 1015.65 1015.71 1015.57 1015.72
1001.45 1001.01 1000.34 999.80 999.36 999.89 1001.11 1001.73 1004.83 1002.98 1001.25 1000.42 1000.32 1000.33 1000.44 1000.62 1000.99 1001.83 1002.23 1003.27 1004.50 1004.60 1005.67 1007.39 1009.05 1010.11 1010.94 1011.57 1012.54 1012.77 1013.24 1013.42 1012.98 1013.33 1013.89 1014.10 1014.19 1014.35 1014.67 1014.63 1014.84 1014.87 1014.99 1015.16 1015.30 1015.48 1015.56 1015.63 1015.70
1000.67 999.81 998.66 998.46 998.57 1000.33 1001.20 1001.32 1001.40 1000.84 1000.75 1001.04 1000.52 1000.53 1000.79 1000.80 1000.99 1001.51 1001.88 1002.24 1004.09 1004.10 1005.84 1007.38 1008.65 1009.85 1010.62 1011.17 1011.58 1012.26 1012.77 1013.26 1013.44 1013.58 1013.74 1013.56 1013.69 1013.83 1014.36 1014.69 1014.89 1014.71 1015.06 1015.10 1015.16 1015.19 1015.45 1015.55 1015.57
999.50 999.15 998.31 998.21 997.88 1000.40 1000.54 999.88 1000.42 999.74 999.88 1000.21 1000.27 1000.59 1001.13 1001.29 1001.29 1001.73 1002.21 1002.71 1003.40 1004.79 1006.18 1007.42 1008.27 1009.36 1010.13 1010.73 1011.24 1011.85 1012.33 1012.53 1013.13 1013.11 1012.77 1013.26 1013.07 1014.00 1014.04 1014.30 1014.22 1014.33 1014.41 1014.63 1014.88 1015.07 1015.14 1014.96 1015.03
999.41 999.25 998.68 998.37 997.85 998.26 1000.87 1001.11 999.57 1000.02 999.20 999.22 999.99 1000.31 1000.81 1001.76 1002.30 1002.51 1002.57 1003.05 1003.95 1005.29 1006.50 1007.48 1007.88 1009.24 1009.88 1010.19 1010.80 1011.27 1011.88 1012.22 1012.48 1012.68 1012.79 1012.98 1012.75 1012.96 1013.66 1013.68 1014.03 1014.17 1014.26 1014.46 1014.60 1015.02 1015.11 1014.99 1015.04
999.83 999.28 998.71 998.81 998.63 998.82 999.83 999.20 999.64 999.65 999.29 999.16 1000.04 1000.37 1001.03 1001.56 1002.70 1002.92 1003.09 1003.36 1004.24 1005.20 1006.56 1007.34 1008.24 1009.28 1009.37 1009.63 1010.47 1010.78 1011.51 1011.97 1012.11 1012.11 1012.48 1012.49 1012.36 1012.88 1013.35 1013.57 1013.86 1014.02 1014.14 1014.24 1014.49 1014.69 1014.63 1014.60 1014.51
999.47 998.90 998.81 998.31 998.58 998.44 998.77 1000.75 1000.18 1000.09 999.82 999.99 1000.49 1000.91 1001.36 1001.74 1002.49 1003.18 1003.16 1003.87 1004.29 1005.11 1006.29 1007.36 1007.75 1008.57 1008.79 1009.06 1009.40 1010.01 1011.21 1011.47 1012.01 1011.80 1012.35 1012.71 1012.67 1012.74 1013.21 1013.54 1013.93 1014.07 1013.99 1014.13 1014.26 1014.57 1014.57 1014.33 1014.38
998.92 998.81 998.66 998.20 998.45 998.99 999.46 1000.08 1000.20 1000.52 1000.85 1000.93 1001.13 1001.66 1002.00 1002.25 1002.62 1003.11 1003.41 1003.90 1004.42 1005.18 1006.00 1006.94 1007.73 1008.06 1008.27 1008.36 1008.93 1009.48 1010.19 1010.68 1011.12 1011.60 1011.80 1012.42 1012.69 1012.94 1013.26 1013.55 1013.70 1013.86 1013.74 1013.79 1014.16 1014.38 1014.05 1014.04 1013.98
Wind_Speed
12 12 7 5 5 4 8 6 3 7 8 9 8 10 9 14 10 5 19 15 18 20 18 16 12 11 11 12 12 14 15 13 12 12 11 10 9 8 8 6 7 7 3 0 2 2 3 5 7
13 5 7 7 2 2 9 6 7 12 10 3 7 4 4 14 10 16 17 19 19 19 17 17 13 12 12 12 12 13 13 13 11 10 10 8 8 6 6 5 4 4 3 2 5 2 2 2 8
13 5 10 5 6 4 10 3 7 6 7 6 5 4 9 9 9 16 18 19 19 18 17 17 15 13 12 11 12 13 12 13 12 10 9 8 7 6 6 4 3 2 2 2 4 3 3 5 6
7 8 7 2 9 14 11 9 9 10 8 6 12 9 10 5 13 11 19 18 18 17 19 17 15 14 12 11 12 12 12 11 10 10 8 7 6 5 4 3 3 3 4 5 4 4 3 3 3
10 6 2 9 10 8 8 4 1 5 4 7 4 2 11 9 10 19 19 16 16 16 20 17 13 13 12 12 11 11 11 10 9 8 8 7 6 5 4 4 4 5 5 4 3 2 2 1 3
5 5 3 9 9 6 3 2 6 7 6 5 6 10 10 10 13 18 17 14 18 13 19 17 14 12 12 12 11 10 10 9 8 6 6 6 5 4 5 5 5 4 3 2 4 3 2 4 5
6 6 6 7 4 10 8 1 5 5 9 6 7 7 12 14 17 17 17 11 15 14 17 14 13 12 12 11 11 10 9 8 6 5 5 4 4 4 5 4 4 4 3 3 3 4 4 4 5
4 8 3 5 4 10 7 2 2 4 10 9 2 7 14 17 18 17 19 12 13 11 14 14 13 12 11 12 11 11 9 8 7 6 5 5 6 8 7 6 4 6 3 4 4 4 4 5 6
7 8 7 10 10 5 5 2 3 6 4 3 1 13 11 18 19 17 18 12 8 9 10 16 15 12 11 12 13 9 9 8 8 8 7 9 10 12 11 9 9 7 5 3 2 2 3 7 9
9 5 8 5 9 7 5 6 2 6 5 5 5 7 20 18 17 18 20 13 17 17 11 11 12 14 8 5 13 10 10 9 8 8 8 9 4 5 9 9 10 9 9 7 6 5 5 8 1
5 8 3 5 8 8 7 3 3 4 3 8 9 12 16 18 17 17 17 20 13 12 13 9 10 8 13 11 8 5 3 4 6 6 4 6 3 6 5 6 6 5 12 6 9 10 9 3 4
8 2 2 3 2 5 5 5 4 3 1 7 12 13 16 17 17 16 17 14 15 15 12 11 11 10 8 6 6 8 6 5 2 6 8 2 4 5 2 5 5 5 2 5 6 4 7 5 6
5 6 6 5 3 5 3 6 5 2 4 8 4 12 15 16 16 16 16 16 14 15 13 11 10 7 5 3 6 4 4 5 4 3 6 1 5 3 5 4 4 4 6 3 3 2 3 3 4
6 10 10 3 5 3 6 8 3 6 2 6 6 12 14 14 14 14 15 16 15 15 14 14 11 10 9 7 5 1 4 4 4 3 6 5 6 2 5 7 3 5 3 4 5 3 3 3 3
8 13 9 5 6 6 8 14 11 6 6 8 10 10 13 16 16 15 15 15 17 14 15 9 9 11 8 10 9 3 5 6 4 6 6 6 6 6 0 3 5 4 7 5 6 3 4 4 4
8 12 6 8 4 6 6 8 7 10 8 9 11 12 13 13 13 14 16 13 14 13 12 13 12 16 12 9 7 5 7 2 5 6 8 8 7 4 5 5 3 5 2 2 6 7 3 6 4
10 9 4 5 6 4 5 11 6 7 9 10 12 15 13 14 15 16 17 17 16 15 11 13 10 12 12 10 8 8 7 5 4 4 5 11 8 6 7 4 2 1 3 1 5 8 7 2 6
8 5 6 7 4 7 11 11 8 11 11 12 13 14 15 15 16 17 17 17 19 16 11 12 9 8 8 7 6 5 4 5 5 4 3 10 7 5 5 4 2 4 2 3 4 5 6 2 5
9 9 9 7 6 9 13 12 12 8 14 10 14 15 18 18 17 15 15 15 16 16 15 13 12 12 7 8 9 5 5 4 6 6 4 3 6 7 4 8 5 4 4 2 2 0 1 5 1
11 13 15 1 4 10 11 13 3 4 6 12 13 13 15 17 15 13 16 15 16 17 17 15 13 11 11 9 7 8 8 6 7 7 6 8 8 7 7 5 5 3 3 3 4 2 5 5 4
14 16 7 10 11 17 10 9 23 9 4 3 10 12 13 15 21 19 19 18 16 14 15 14 14 13 11 10 5 4 6 3 3 5 8 9 9 9 7 5 7 1 6 4 5 5 4 1 4
15 10 7 10 12 9 3 2 9 13 12 6 7 11 14 15 15 23 20 22 20 17 17 14 15 15 14 12 10 9 7 8 10 9 7 9 11 9 7 7 7 6 6 3 3 5 4 3 4
12 11 11 14 15 19 4 2 12 35 13 7 4 7 10 13 17 17 20 14 22 19 17 16 15 14 13 13 11 11 9 7 6 7 8 7 7 9 11 7 8 6 6 3 3 4 2 4 4
10 15 20 21 17 6 13 3 7 10 8 6 8 5 2 11 14 17 17 23 4 16 15 15 16 15 14 13 14 12 11 10 7 7 5 8 5 8 8 7 6 6 4 3 6 5 5 5 5
16 18 13 8 11 5 20 5 1 3 8 7 5 7 5 3 10 14 15 16 23 14 14 14 16 15 14 15 15 14 13 10 8 8 8 9 8 6 6 9 8 7 6 5 7 3 6 5 4
11 13 9 13 7 5 22 4 7 9 11 7 7 7 4 3 5 10 13 14 12 12 15 16 16 15 15 13 13 11 12 9 7 9 7 8 9 8 9 10 10 9 7 7 6 6 6 5 4
9 11 10 13 17 8 6 22 9 17 16 10 9 10 8 6 5 9 10 13 13 14 14 10 15 14 14 16 13 13 11 11 10 10 10 6 7 9 6 10 8 9 8 7 6 4 7 7 5
13 12 12 5 8 13 9 8 5 6 11 10 7 9 9 8 6 8 10 9 13 13 13 13 12 14 15 14 14 12 11 12 12 9 9 9 4 10 7 9 9 8 8 7 5 7 9 6 6
11 14 8 14 8 10 7 2 11 6 7 7 7 7 9 8 8 8 9 11 12 12 12 15 13 14 14 14 12 11 11 14 12 10 11 10 9 8 7 6 6 8 9 8 6 5 4 5 6
10 14 16 9 8 5 17 8 10 9 8 7 9 6 8 7 6 4 7 10 10 11 13 5 12 12 12 13 12 13 13 12 13 11 10 13 10 9 9 9 9 9 9 6 7 7 9 9 7
Wind_Direction
223 216 246 246 266 108 99 62 74 121 95 51 66 43 71 35 31 77 133 145 147 130 133 147 140 139 131 123 133 143 145 143 141 138 134 135 133 125 121 120 133 132 127 67 73 137 121 124 84
266 222 231 263 121 68 92 78 52 50 45 79 97 238 47 68 57 123 147 139 143 137 147 138 139 139 134 126 126 139 141 149 150 145 146 148 145 143 146 157 140 129 137 259 272 244 140 105 149
252 263 255 269 44 32 96 211 130 90 345 342 106 18 21 82 111 138 129 143 145 138 141 121 134 138 138 136 129 130 143 146 151 145 146 145 143 153 162 176 183 200 194 246 273 271 227 184 198
283 203 225 336 57 85 115 212 119 158 113 24 335 81 101 66 139 128 143 158 135 141 130 131 137 140 141 141 137 139 144 148 150 154 151 146 158 165 178 185 182 189 206 201 240 245 253 253 184
227 241 74 64 57 64 79 31 146 152 144 152 98 31 86 123 114 128 151 160 136 146 120 140 145 147 154 151 150 148 147 149 155 164 155 164 174 175 176 171 188 182 177 183 194 193 227 198 159
241 277 49 75 62 73 87 45 229 148 143 149 159 121 87 127 146 149 158 144 138 154 132 139 151 154 160 160 157 158 154 157 169 170 163 183 178 169 170 172 179 155 149 172 159 150 160 152 127
337 345 46 72 91 64 35 7 86 129 262 43 229 91 122 144 140 156 140 168 150 158 138 149 161 162 167 171 168 167 165 170 179 175 184 187 183 167 185 177 163 134 128 118 110 150 150 158 150
319 282 32 43 344 61 40 156 31 51 326 188 42 334 151 146 155 160 139 167 167 155 140 151 166 171 177 169 178 177 177 176 184 192 196 194 195 182 188 179 165 154 172 149 149 131 162 178 180
249 269 59 21 9 44 74 338 101 1 150 184 283 143 165 149 168 162 131 165 132 143 217 162 159 170 192 175 160 179 185 187 190 199 193 210 221 182 152 172 160 169 205 177 129 114 178 200 203
313 24 24 30 337 1 114 310 9 206 186 152 139 89 128 159 175 169 150 166 177 163 184 186 171 150 214 228 140 194 178 191 200 188 174 231 156 137 148 168 177 185 214 233 225 227 242 230 156
6 43 8 23 23 328 358 235 165 247 260 160 150 154 150 168 180 180 174 170 173 181 175 177 147 143 199 135 186 178 148 216 192 214 229 249 124 159 212 162 169 201 199 227 217 207 231 214 275
270 207 285 22 350 295 296 1 280 280 12 13 152 152 163 176 182 187 183 169 170 184 196 187 162 170 187 165 194 133 183 219 155 175 207 199 237 101 137 298 141 180 189 209 206 207 250 172 226
252 353 298 13 123 262 234 263 302 280 224 151 258 154 175 181 180 197 185 174 178 179 188 186 175 167 194 211 196 186 167 172 244 172 180 240 220 186 100 275 257 275 169 204 215 228 252 340 199
355 291 280 360 26 242 281 270 191 190 163 156 195 173 178 189 179 199 189 172 178 179 182 182 190 156 194 218 226 5 238 136 207 201 164 224 258 136 153 255 8 186 168 236 158 206 215 225 191
282 276 280 147 347 324 310 253 211 218 169 173 178 181 171 190 186 194 181 186 176 185 176 161 170 160 199 208 199 187 253 156 156 218 166 201 209 207 336 254 273 198 196 189 162 75 353 265 259
252 258 263 93 324 105 277 329 132 139 191 184 183 178 188 178 185 191 185 187 169 193 166 171 194 160 178 209 193 187 249 253 182 234 170 192 217 255 249 210 248 38 285 223 140 136 230 256 238
195 284 348 289 181 322 260 311 113 177 220 215 181 175 193 177 189 182 182 187 177 184 184 191 188 186 169 193 202 178 227 244 218 205 239 167 205 197 263 209 152 301 250 269 136 170 186 237 210
345 329 337 314 332 330 290 277 277 183 203 213 203 185 186 184 194 176 192 191 181 182 170 192 175 205 179 142 184 188 174 246 236 271 209 157 199 197 243 262 73 272 186 200 354 346 5 196 195
306 287 287 267 28 311 306 311 286 338 175 226 215 185 186 190 186 175 192 186 188 180 178 181 200 173 178 197 185 185 193 224 248 226 176 208 244 174 219 260 164 225 263 280 286 86 351 282 351
246 264 268 20 192 269 293 343 26 13 316 183 227 213 191 179 171 186 189 194 197 189 184 187 197 177 194 196 200 195 185 205 209 231 197 217 198 218 205 261 270 144 45 193 221 241 282 205 138
238 251 328 334 304 259 283 117 280 118 124 189 209 221 219 196 166 185 192 197 187 188 195 190 193 181 198 226 184 214 157 231 255 262 200 187 219 212 215 204 266 159 274 135 241 213 248 263 324
272 17 302 277 283 293 265 211 321 330 135 162 184 216 224 203 203 180 197 190 194 185 183 196 189 189 198 206 197 178 177 203 201 208 211 186 200 215 218 219 223 231 271 76 243 209 318 234 290
300 321 291 284 270 269 190 50 6 296 42 65 140 183 213 230 205 208 163 228 189 183 176 184 184 198 200 192 196 187 194 230 234 186 193 214 173 208 221 194 209 230 230 178 289 303 278 297 243
278 280 267 249 239 259 328 59 216 246 31 65 43 10 308 211 216 202 203 183 322 178 171 178 176 195 197 180 198 192 194 222 224 217 164 209 189 179 218 218 226 237 261 239 248 231 262 282 316
236 253 275 274 242 64 232 167 183 13 78 50 4 34 350 276 207 209 198 205 185 147 188 170 180 188 191 188 195 194 199 213 225 202 202 198 214 193 196 205 230 217 222 244 269 245 281 247 259
248 311 306 312 305 139 269 196 174 110 132 161 76 78 90 322 173 213 202 210 159 168 183 187 182 186 192 195 204 187 201 197 209 219 213 212 193 196 219 195 216 212 216 216 235 243 257 235 222
279 243 300 293 285 240 101 304 69 11 137 107 74 66 52 126 182 208 232 193 176 188 179 188 184 179 196 201 195 188 196 207 203 220 216 242 202 178 193 187 201 228 229 234 235 256 260 263 239
272 325 289 307 344 318 148 234 86 115 70 68 50 46 44 99 165 192 214 197 185 184 174 161 190 188 201 210 198 187 190 201 220 203 199 245 228 165 202 193 218 224 225 228 210 227 231 226 234
205 232 227 278 311 308 290 124 339 60 78 71 65 36 51 61 141 195 205 188 198 199 163 201 183 196 202 201 197 202 187 200 212 213 192 222 240 203 226 216 218 242 241 215 221 246 286 217 252
282 287 283 269 245 291 324 99 73 104 86 79 69 48 49 48 88 150 204 186 186 197 167 156 191 204 209 199 201 198 196 200 189 219 202 192 224 219 219 224 217 224 232 223 215 215 257 213 217